TimeEDT,TemperatureF,Dew PointF,Humidity,Sea Level PressureIn,VisibilityMPH,Wind Direction,Wind SpeedMPH,Gust SpeedMPH,PrecipitationIn,Events,Conditions,WindDirDegrees,DateUTC
12:53 AM,30.0,25.0,82,30.31,10.0,West,6.9,-,N/A,,Clear,270,2013-03-28 04:53:00
1:53 AM,30.0,26.1,85,30.31,10.0,West,6.9,-,N/A,,Clear,280,2013-03-28 05:53:00
2:53 AM,34.0,26.1,73,30.31,10.0,West,6.9,-,N/A,,Clear,280,2013-03-28 06:53:00
3:53 AM,30.9,26.1,82,30.31,10.0,West,5.8,-,N/A,,Clear,280,2013-03-28 07:53:00
4:53 AM,30.0,25.0,82,30.31,10.0,West,5.8,-,N/A,,Clear,280,2013-03-28 08:53:00
5:53 AM,30.9,26.1,82,30.30,10.0,West,4.6,-,N/A,,Clear,280,2013-03-28 09:53:00
6:53 AM,30.9,26.1,82,30.31,10.0,West,5.8,-,N/A,,Clear,280,2013-03-28 10:53:00
7:53 AM,30.9,27.0,85,30.32,10.0,West,5.8,-,N/A,,Clear,280,2013-03-28 11:53:00
8:53 AM,36.0,30.0,79,30.33,10.0,West,6.9,-,N/A,,Clear,280,2013-03-28 12:53:00
9:53 AM,37.9,28.9,70,30.35,10.0,West,6.9,-,N/A,,Clear,280,2013-03-28 13:53:00
10:53 AM,39.0,28.0,65,30.35,10.0,NW,8.1,-,N/A,,Clear,310,2013-03-28 14:53:00
11:53 AM,39.9,27.0,60,30.35,10.0,NW,6.9,-,N/A,,Clear,320,2013-03-28 15:53:00
12:53 PM,42.1,26.1,53,30.35,10.0,West,8.1,-,N/A,,Clear,270,2013-03-28 16:53:00
1:53 PM,43.0,28.0,56,30.35,10.0,West,9.2,-,N/A,,Clear,280,2013-03-28 17:53:00
2:53 PM,43.0,28.0,56,30.35,10.0,West,10.4,-,N/A,,Clear,260,2013-03-28 18:53:00
3:53 PM,42.1,27.0,55,30.33,10.0,West,9.2,-,N/A,,Clear,270,2013-03-28 19:53:00
4:53 PM,41.0,26.1,55,30.32,10.0,West,6.9,-,N/A,,Clear,270,2013-03-28 20:53:00
5:53 PM,41.0,26.1,55,30.32,10.0,Variable,5.8,-,N/A,,Clear,0,2013-03-28 21:53:00
6:53 PM,41.0,25.0,53,30.31,10.0,Calm,Calm,-,N/A,,Clear,0,2013-03-28 22:53:00
7:53 PM,39.9,25.0,55,30.31,10.0,Calm,Calm,-,N/A,,Clear,0,2013-03-28 23:53:00
8:53 PM,34.0,27.0,75,30.31,10.0,Calm,Calm,-,N/A,,Clear,0,2013-03-29 00:53:00
9:53 PM,30.9,26.1,82,30.32,10.0,Calm,Calm,-,N/A,,Clear,0,2013-03-29 01:53:00
10:53 PM,30.0,27.0,88,30.32,10.0,Calm,Calm,-,N/A,,Clear,0,2013-03-29 02:53:00
11:53 PM,28.0,25.0,88,30.32,9.0,Calm,Calm,-,N/A,,Clear,0,2013-03-29 03:53:00